CW6780 Weather Reports


time (UTC)temp
F
wind
direction
speed
knots
gust
knots
rain 1hr
in
rain 24hr
in
rain mn
in
humidity
%
barometer
mb
20211025043144 53 170 6.1 20.0 0.00 0.00 0.02 72 980.4
20211025041144 54 156 5.2 16.5 0.00 0.00 0.02 71 980.2
20211025040144 53 110 5.2 19.1 0.00 0.00 0.02 72 979.8
20211025034144 53 166 6.1 13.9 0.00 0.00 0.02 74 979.9
20211025033144 53 164 6.1 16.5 0.00 0.00 0.02 74 979.8
20211025032144 53 182 7.0 25.2 0.00 0.00 0.02 74 979.5
20211025025144 53 163 4.3 20.0 0.00 0.00 0.02 74 979.8
20211025023144 53 186 4.3 16.5 0.00 0.00 0.02 75 979.8
20211025021144 53 199 3.5 15.6 0.00 0.00 0.02 77 979.9
20211025020144 53 147 3.5 12.2 0.00 0.00 0.02 77 980.0
20211025014144 53 188 3.5 15.6 0.00 0.00 0.02 79 980.0
20211025013144 53 140 5.2 20.9 0.00 0.00 0.02 78 979.7
20211025011144 52 147 5.2 19.1 0.00 0.00 0.02 80 979.6
20211025010144 52 197 2.6 11.3 0.00 0.00 0.02 81 979.9
20211025005144 52 212 1.7 15.6 0.00 0.00 0.02 82 979.9
20211025003144 53 158 2.6 7.8 0.00 0.00 0.02 81 979.8
20211025000144 53 180 1.7 8.7 0.00 0.00 0.02 84 979.8
20211024234144 54 139 0.9 3.5 0.00 0.00 0.02 81 979.5
20211024231144 53 91 3.5 13.0 0.00 0.00 0.02 81 979.5
20211024225144 52 151 3.5 10.4 0.00 0.00 0.02 83 979.5
20211024223144 53 145 4.3 13.0 0.00 0.00 0.02 83 979.5
20211024222144 53 192 2.6 12.2 0.00 0.00 0.02 82 978.5
20211024221144 53 164 3.5 11.3 0.00 0.00 0.02 83 979.0
20211024215144 54 179 2.6 11.3 0.00 0.00 0.02 84 978.5
20211024213144 53 172 2.6 8.7 0.00 0.00 0.02 91 978.6
20211024212144 52 175 4.3 13.9 0.00 0.00 0.02 89 978.4
20211024211144 53 187 6.1 21.7 0.01 0.00 0.02 88 979.0
20211024210144 53 151 4.3 13.0 0.02 0.00 0.02 89 978.9
20211024205144 53 158 2.6 12.2 0.02 0.00 0.02 92 976.8
20211024202144 53 188 6.1 20.9 0.02 0.00 0.02 89 978.4
20211024201144 54 185 5.2 15.6 0.01 0.00 0.01 86 978.3
20211024200144 54 188 5.2 14.8 0.00 0.00 0.00 81 978.0
20211024195144 54 217 2.6 11.3 0.00 0.00 0.00 81 977.6
20211024193144 55 172 1.7 9.6 0.00 0.00 0.00 80 977.5
20211024191144 55 174 0.9 7.8 0.00 0.00 0.00 81 978.0
20211024190145 54 159 0.9 7.8 0.00 0.00 0.00 80 978.3
20211024182144 52 181 1.7 7.0 0.00 0.00 0.00 84 978.4
20211024172144 52 106 0.9 4.3 0.00 0.00 0.00 85 978.3
20211024171144 51 108 0.9 7.8 0.00 0.00 0.00 85 978.8
20211024165144 51 126 0.9 2.6 0.00 0.00 0.00 85 980.1
20211024163144 51 122 0.9 3.5 0.00 0.00 0.00 85 980.0
20211024162144 51 189 0.0 2.6 0.00 0.00 0.00 85 980.1
20211024161144 51 189 0.9 6.1 0.00 0.00 0.00 85 980.1
20211024155144 51 77 0.9 4.3 0.00 0.00 0.00 84 980.5
20211024154144 51 160 0.0 4.3 0.00 0.00 0.00 84 980.5
20211024153144 51 198 0.0 3.5 0.00 0.00 0.00 84 980.5
20211024151144 50 108 0.0 0.9 0.00 0.00 0.00 84 980.9
20211024150144 50 108 0.0 2.6 0.00 0.00 0.00 84 981.1
20211024145144 50 108 0.0 2.6 0.00 0.00 0.00 84 981.3
20211024144144 50 108 0.0 2.6 0.00 0.00 0.00 83 981.6
20211024143144 50 108 1.7 3.5 0.00 0.00 0.00 83 982.1
20211024141144 50 68 0.0 2.6 0.00 0.00 0.00 84 982.3
20211024135144 50 68 0.0 1.7 0.00 0.00 0.00 85 983.1
20211024134144 50 68 0.0 1.7 0.00 0.00 0.00 84 983.1
20211024133144 50 68 0.9 3.5 0.00 0.00 0.00 84 983.2
20211024131144 50 59 0.9 4.3 0.00 0.00 0.00 84 984.4
20211024125144 50 62 0.9 4.3 0.00 0.00 0.00 83 985.7
20211024124144 50 68 1.7 7.0 0.00 0.00 0.00 83 985.8
20211024122144 50 60 1.7 4.3 0.00 0.00 0.00 84 986.8
20211024120144 50 63 0.9 3.5 0.00 0.00 0.00 86 987.4
20211024114144 50 63 1.7 3.5 0.00 0.00 0.00 86 987.8
20211024110144 50 64 1.7 4.3 0.00 0.00 0.00 86 989.1
20211024104144 50 53 2.6 8.7 0.00 0.00 0.00 87 989.5
20211024103144 50 72 1.7 6.1 0.00 0.00 0.00 88 990.0
20211024102144 50 56 2.6 5.2 0.00 0.00 0.00 90 990.1
20211024100144 50 59 0.9 3.5 0.00 0.00 0.00 92 991.0
20211024095144 50 59 1.7 4.3 0.00 0.00 0.00 92 991.1
20211024094144 50 59 1.7 5.2 0.00 0.00 0.00 91 991.5
20211024091144 50 64 1.7 6.1 0.00 0.00 0.00 90 992.0
20211024090144 50 61 1.7 5.2 0.00 0.00 0.00 90 992.1
20211024085144 50 61 0.0 2.6 0.00 0.00 0.00 90 992.5
20211024081144 51 60 1.7 6.1 0.00 0.00 0.00 92 993.1
20211024080144 51 60 0.9 2.6 0.00 0.00 0.00 93 993.2
20211024075144 51 60 0.9 3.5 0.00 0.00 0.00 93 993.2
20211024073144 51 60 0.9 4.3 0.00 0.00 0.00 94 993.7
20211024071144 51 59 0.9 3.5 0.00 0.00 0.00 94 994.2
20211024065144 50 60 0.9 3.5 0.00 0.00 0.02 94 994.8
20211024063144 50 59 0.0 1.7 0.00 0.00 0.02 93 995.5
20211024061144 50 59 0.0 1.7 0.00 0.00 0.02 93 995.7
20211024054144 50 60 0.0 4.3 0.00 0.00 0.02 93 996.1